User: anonymous   Login
Location: American Medical Response
(33.3472°N, 96.5511°W)
Time: 12:22:39
(UTC+00:00)
Language:

POPACS 3 - Orbit

View from above orbital plane
View from above orbital plane
View from above satellite
View from above satellite

Ground track
Ground track

The orbit data is extracted from the following two-line orbital elements,

1 39270U 13055F   22268.33727957  .00005679  00000-0  16972-3 0  9993
2 39270  81.0136 226.3779 0686151 151.5270 212.5272 14.22759922442831
Epoch (UTC): 25 September 2022 08:05:40
Eccentricity: 0.0686151
inclination: 81.0136°
perigee height: 322 km
apogee height: 1309 km
right ascension of ascending node: 226.3779°
argument of perigee: 151.5270°
revolutions per day: 14.22759922
mean anomaly at epoch: 212.5272°
orbit number at epoch: 44283

The dashed part of the orbit path shows where the satellite is in the earth's shadow,  

DLR